Location: Devore Heights
(34.2372°N, 117.4156°W)
Time: 15:53:10
(UTC+00:00)

Tiros 1 despin weight - Pass Details

Date: 22 September 2024
Orbit: 573 x 615 km, 48.2° (Epoch: 04 October)

Event Time Altitude Azimuth Distance (km) Brightness Sun altitude
Exits shadow 12:52:37 - 314° (NW) 2,786 ? -10.2°
Reaches altitude 10° 12:55:00 10° 327° (NNW) 1,978 ? -9.7°
Maximum altitude 12:58:46 25° 23° (NNE) 1,252 ? -9.0°
Drops below altitude 10° 13:02:32 10° 79° (E) 1,975 ? -8.2°
Sets 13:05:11 0° 93° (E) 2,876 ? -7.6°
